Regional Weather Roundup
Issued by NWS

Home | Current Version | Previous Version | Text Only | Print | Product List | Glossary On
Versions: 1 2 3 4 5 6 7 8 9 10 11 12 13 14 15 16 17 18 19 20 21 22 23 24 25 26 27 28 29 30 31 32 33 34 35 36 37 38 39 40 41 42 43 44 45 46 47 48 49 50
000
ASUS44 KEWX 080003
RWRTX
SOUTH TEXAS REGIONAL WEATHER ROUNDUP
NATIONAL WEATHER SERVICE AUSTIN/SAN ANTONIO TX
700 PM CDT TUE JUL 07 2015

NOTE: "FAIR" INDICATED FEW OR NO CLOUDS BELOW 12,000 FEET WITH NO
SIGNIFICANT WEATHER AND/OR OBSTRUCTIONS TO VISIBILITY.

* - THESE STATIONS ARE NOT NWS OR FAA STATIONS...AND ARE NOT SUBJECT
    TO NWS AND FAA QUALITY CONTROL.

TXZ171-172-183>190-080100-
TEXAS HILL COUNTRY AND EDWARDS PLATEAU

CITY           SKY/WX    TMP DP  RH WIND       PRES   REMARKS
JUNCTION       CLOUDY    84  68  58 S5        29.94F
6HR MIN TEMP:  82; 6HR MAX TEMP:  86;

*LLANO         CLOUDY    90  68  48 S13       29.95F HX  93
BURNET         CLOUDY    86  69  56 S7G16     29.96F HX  90
6HR MIN TEMP:  86; 6HR MAX TEMP:  89;

*HORSESHOE BAY CLOUDY    88  70  55 S10G17    29.93F HX  92
6HR MIN TEMP:  87; 6HR MAX TEMP:  91;

*KERRVILLE     CLOUDY    84  71  63 S12       29.95F
6HR MIN TEMP:  82; 6HR MAX TEMP:  87;

*FREDERICKSBRG CLOUDY    85  66  53 S12G17    29.96F
*ROCKSPRINGS   CLOUDY    81  70  69 SE9       29.99F
*BOERNE STAGE  CLOUDY    77  72  83 S3        29.96S
*CASTROVILLE   CLOUDY    88  69  54 SE10G18   29.92F HX  92
HONDO          CLOUDY    88  71  57 SE16G22   29.92F HX  94
6HR MIN TEMP:  84; 6HR MAX TEMP:  89;

*UVALDE        CLOUDY    87  71  60 SE9       29.89F HX  92
6HR MIN TEMP:  83; 6HR MAX TEMP:  89;

DEL RIO        MOSUNNY   84  70  62 SE8       29.86F
6HR MIN TEMP:  81; 6HR MAX TEMP:  86;

LAUGHLIN AFB   MOSUNNY   85  73  66 SE9       29.87F HX  91
6HR MIN TEMP:  82; 6HR MAX TEMP:  86;

CARRIZO SPRGS  MOSUNNY   90  70  51 SE9       29.84F HX  95
$$

TXZ173-191>194-202-209-217>225-228-080100-
CENTRAL AND SOUTH CENTRAL TEXAS

CITY           SKY/WX    TMP DP  RH WIND       PRES   REMARKS
GEORGETOWN     MOSUNNY   84  72  65 S9G20     29.92F
AUSTIN/BERGSTM CLOUDY    87  73  62 S16G26    29.92F HX  94
6HR MIN TEMP:  87; 6HR MAX TEMP:  92; 6HR PCP: TRACE;

AUSTIN/MABRY   PTSUNNY   85  72  65 SE8       29.94S HX  91
6HR MIN TEMP:  85; 6HR MAX TEMP:  91; 6HR PCP: TRACE;

*AUSTIN/EXEC   PTSUNNY   86  72  62 S15       29.94S HX  92
*LAGO VISTA    PTSUNNY   85  70  61 S10G17    29.96F
SAN MARCOS     CLOUDY    88  72  58 SE17G23   29.93S HX  94
6HR MIN TEMP:  88; 6HR MAX TEMP:  93;

NEW BRAUNFELS  CLOUDY    87  72  60 S20       29.91F HX  93
6HR MIN TEMP:  87; 6HR MAX TEMP:  94;

RANDOLPH AFB   CLOUDY    85  72  64 SE15      29.93S HX  91
6HR MIN TEMP:  85; 6HR MAX TEMP:  90;

PT SAN ANTONIO NOT AVBL
SAN ANTONIO    CLOUDY    87  73  62 SE20      29.92F HX  94
6HR MIN TEMP:  86; 6HR MAX TEMP:  91; 6HR PCP: TRACE;

STINSON FIELD  PTSUNNY   87  73  62 SE12      29.89F HX  94
6HR MIN TEMP:  87; 6HR MAX TEMP:  92; 6HR PCP: TRACE;

*PLEASANTON    PTSUNNY   87  71  58 SE12G18   29.90S HX  93
6HR MIN TEMP:  87; 6HR MAX TEMP:  93;

*LA GRANGE     MOSUNNY   88  75  67 S9G18     29.93F HX  97
*GIDDINGS      MOSUNNY   86  72  63 S9G18     29.98F HX  92
*GONZALES      MOSUNNY   87  74  65 S18       29.93F HX  95
$$

TXZ163>164-176>182-195>201-210>213-226-227-235-080100-
SOUTHEAST TEXAS

CITY           SKY/WX    TMP DP  RH WIND       PRES   REMARKS
COLLEGE STN    MOSUNNY   87  72  60 S13       29.95S HX  93
6HR MIN TEMP:  87; 6HR MAX TEMP:  92; 6HR PCP: TRACE;

*BRYAN         PTSUNNY   87  74  65 S13G18    29.96S HX  94
*CALDWELL      MOSUNNY   86  73  66 S13G22    29.98R HX  93
*CROCKETT      MOSUNNY   86  81  84 SE5       29.99S HX 102
*BRENHAM       MOSUNNY   89  73  59 S16       29.97S HX  96
HUNTSVILLE     CLOUDY    85  74  69 S8        29.97S HX  92
6HR MIN TEMP:  83; 6HR MAX TEMP:  92; 6HR PCP: TRACE;

CONROE         PTSUNNY   85  75  72 S9        29.98S HX  93
6HR MIN TEMP:  79; 6HR MAX TEMP:  93; 6HR PCP:  0.22;

HOUSTON BUSH   PTSUNNY   87  74  64 S14G22    29.98R HX  95
6HR MIN TEMP:  87; 6HR MAX TEMP:  92; 6HR PCP: TRACE;

HOUSTON HOBBY  PTSUNNY   87  74  64 S14G21    29.98S HX  95
6HR MIN TEMP:  87; 6HR MAX TEMP:  92;

*HOUSTON SW AP MOSUNNY   78  70  77 S7        29.99S
6HR MIN TEMP:  76; 6HR MAX TEMP:  83;

PEARLAND       MOSUNNY   88  75  65 SE14G25   30.01R HX  97
6HR MIN TEMP:  87; 6HR MAX TEMP:  91;

HOUSTON HOOKS  MOSUNNY   87  71  58 S9G18     29.97S HX  93
6HR MIN TEMP:  84; 6HR MAX TEMP:  92; 6HR PCP:  0.04;

ELLINGTON FLD  PTSUNNY   88  73  62 S12       30.00R HX  96
SUGAR LAND     MOSUNNY   84  74  71 S12       29.98R HX  91
6HR MIN TEMP:  84; 6HR MAX TEMP:  93;

*HOUSTON EXEC  MOSUNNY   86  73  66 S12       29.99R HX  93
*CLEVELAND MUN MOSUNNY   86  77  73 S10G17    29.99S HX  97
*WHARTON       PTSUNNY   87  75  68 SE15G21   29.98S HX  97
6HR MIN TEMP:  87; 6HR MAX TEMP:  90;

*COLUMBUS      FAIR      85  75  70 S10G18    29.96S HX  94
$$

TXZ214>216-236>238-080100-
THE UPPER TEXAS COAST

CITY           SKY/WX    TMP DP  RH WIND       PRES   REMARKS
*ORANGE        SUNNY     86  70  59 S10G16    30.03R HX  91
6HR MIN TEMP:  86; 6HR MAX TEMP:  90;

PORT ARTHUR    MOSUNNY   85  75  72 S12G20    30.01R HX  93
6HR MIN TEMP:  85; 6HR MAX TEMP:  92;

GALVESTON      SUNNY     86  78  77 S14       30.01S HX  98
6HR MIN TEMP:  86; 6HR MAX TEMP:  91;

ANGLETON       MOSUNNY   87  77  72 S12       29.99S HX  99
6HR MIN TEMP:  85; 6HR MAX TEMP:  91; 6HR PCP: TRACE;

*BAY CITY      PTSUNNY   86  78  75 S10       29.98S HX  98
PALACIOS       PTSUNNY   86  77  74 S15       29.97S HX  97
6HR MIN TEMP:  86; 6HR MAX TEMP:  90;

$$

TXZ229>234-239>247-080100-
TEXAS COASTAL BEND AND RIO GRANDE PLAINS

CITY           SKY/WX    TMP DP  RH WIND       PRES   REMARKS
VICTORIA       PTSUNNY   86  76  71 SE22      29.95F HX  96
6HR MIN TEMP:  85; 6HR MAX TEMP:  91; 6HR PCP: TRACE;

*BEEVILLE      PTSUNNY   86  77  74 SE14G24   29.93R HX  97
6HR MIN TEMP:  86; 6HR MAX TEMP:  93; 6HR PCP:  0.03;

ROCKPORT       LGT RAIN  85  78  80 SE14G22   29.93F HX  96
6HR MIN TEMP:  85; 6HR MAX TEMP:  90; 6HR PCP: TRACE;

*PORT ARANSAS  CLOUDY    84  79  86 SE12      29.94S HAZE    HX  95
*PORT LAVACA   PTSUNNY   84  77  79 SE15      29.97S HX  94
*INGLESIDE     MOSUNNY   87  78  76 SE16G24   29.93F HX  99
CORPUS CHRISTI CLOUDY    87  76  69 SE21G29   29.92F HX  97
6HR MIN TEMP:  87; 6HR MAX TEMP:  93;

CORPUS NAS     PTSUNNY   84  79  85 SE20G30   29.93F HX  96
6HR MIN TEMP:  84; 6HR MAX TEMP:  89;

*ROBSTOWN      MOSUNNY   88  76  66 SE21G29   29.92S HX  99
ALICE          PTSUNNY   88  77  69 SE23G31   29.90S HX 100
6HR MIN TEMP:  88; 6HR MAX TEMP:  95;

KINGSVILLE NAS CLOUDY    87  79  76 SE18G31   29.91R HX 101
6HR MIN TEMP:  87; 6HR MAX TEMP:  93;

COTULLA        MOSUNNY   92  70  48 SE17      29.86S HX  97
6HR MIN TEMP:  89; 6HR MAX TEMP:  94; 6HR PCP: TRACE;

*FAITH RANCH     N/A     93  68  43 SE13      29.84F HX  97
LAREDO         MOSUNNY   95  69  42 SE14      29.87S HX 100
6HR MIN TEMP:  93; 6HR MAX TEMP:  99;

$$

TXZ248>255-080100-
DEEP SOUTH TEXAS

CITY           SKY/WX    TMP DP  RH WIND       PRES   REMARKS
BROWNSVILLE    MOSUNNY   87  77  72 SE21G29   29.91F HX  99
6HR MIN TEMP:  87; 6HR MAX TEMP:  91;

PORT ISABEL    PTSUNNY   86  78  77 SE22G29   29.90F HAZE    HX  98
6HR MIN TEMP:  86; 6HR MAX TEMP:  89;

*SOUTH PADRE   SUNNY     82  77  83 SW10      29.93S HX  91
HARLINGEN      MOSUNNY   89  76  65 SE18G28   29.89S HX 100
6HR MIN TEMP:  88; 6HR MAX TEMP:  94;

*HEBBRONVILLE    N/A     90  69  50 SE18      29.90S HX  95
MCALLEN        SUNNY     92  73  53 SE22      29.88F HX 100
6HR MIN TEMP:  91; 6HR MAX TEMP:  96;

*WESLACO       SUNNY     90  72  55 S21G28    29.89R HX  96
FALFURRIAS     MOSUNNY   91  73  56 SE17      29.89S HX  98
6HR MIN TEMP:  91; 6HR MAX TEMP:  95;

EDINBURG       SUNNY     91  72  53 SE15      29.88F HX  97
6HR MIN TEMP:  91; 6HR MAX TEMP:  95;

*ZAPATA        MOSUNNY   94  68  41 SE13G23   29.85R HX  98
$$

TXZ213>215-236>238-242>244-246-247-251-254-255-080100-
CMAN STATIONS

STATION/POSITION TIME  TEMP    WIND        PRES    WAVE



USA.gov is the U.S. government's official web portal to all federal, state and local government web resources and services.